New River MCAS, NC

4:09 AM EDT on August 19, 2017 (GMT -0400)
New River Marine Corps Air Station

Weather History for KNCA - May, 2013

Change the Weather History Date:

Tuesday, May 14, 2013

  Actual Average Record
Temperature  
Mean Temperature 58 °F -  
Max Temperature 71 °F 77 °F 84 °F (2011)
Min Temperature 45 °F 56 °F 45 °F (2013)
Degree Days  
Heating Degree Days 7    
Growing Degree Days 8 (Base 50)    
Moisture  
Dew Point 38 °F    
Average Humidity 50    
Maximum Humidity 90    
Minimum Humidity 24    
Precipitation  
Precipitation 0.00 in - - ()
Sea Level Pressure  
Sea Level Pressure 30.21 in    
Wind  
Wind Speed 6 mph (NW)    
Max Wind Speed 13 mph    
Max Gust Speed 21 mph    
Visibility 10 miles    
Events      
Averages and records for this station are not official NWS values.
T = Trace of Precipitation, MM = Missing Value Source: NWS Daily Summary

Daily Weather History Graph

Daily Weather History Graph

Search for Another Location

Airport or City:

Trip Planner

Search our weather history database for the weather conditions in past years. The results will help you decide how hot, cold, wet, or windy it might be!

Date:

Astronomy

May. 14, 2013 Rise Set
Actual Time 6:07 AM EDT 8:05 PM EDT
Civil Twilight 5:39 AM EDT 8:33 PM EDT
Nautical Twilight 5:05 AM EDT 9:07 PM EDT
Astronomical Twilight 4:29 AM EDT 9:43 PM EDT
Moon 9:44 AM EDT (5/14) 11:52 PM EDT (5/14)
Length of Visible Light 14h 53m
Length of Day
13h 57m
Waxing Crescent, 19% of the Moon is Illuminated
May 14
Waxing Crescent
May 18
First Quarter
May 25
Full
May 31
Last Quarter
Jun 8
New

Hourly Weather History & Observations

Time (EDT) Temp. Windchill Dew Point Humidity Pressure Visibility Wind Dir Wind Speed Gust Speed Precip Events Conditions
12:56 AM 53.1 °F - 37.9 °F 57% 30.18 in 10.0 mi NNE 8.1 mph - N/A   Clear
1:56 AM 54.0 °F - 37.9 °F 55% 30.19 in 10.0 mi NNE 4.6 mph - N/A   Mostly Cloudy
2:56 AM 53.1 °F - 37.9 °F 57% 30.19 in 10.0 mi North 8.1 mph - N/A   Partly Cloudy
3:56 AM 51.1 °F - 37.9 °F 61% 30.20 in 10.0 mi North 4.6 mph - N/A   Clear
4:56 AM 46.0 °F 44.8 °F 41.0 °F 83% 30.21 in 10.0 mi WNW 3.5 mph - N/A   Clear
5:56 AM 45.0 °F - 41.0 °F 86% 30.22 in 10.0 mi Calm Calm - N/A   Clear
6:56 AM 45.0 °F 43.5 °F 42.1 °F 90% 30.24 in 10.0 mi NNW 3.5 mph - N/A   Clear
7:56 AM 53.1 °F - 39.0 °F 59% 30.26 in 7.0 mi NNW 3.5 mph - N/A   Clear
8:56 AM 57.9 °F - 36.0 °F 44% 30.27 in 10.0 mi NNE 6.9 mph - N/A   Clear
9:56 AM 61.0 °F - 30.0 °F 31% 30.27 in 10.0 mi NE 4.6 mph - N/A   Clear
10:56 AM 62.1 °F - 28.9 °F 29% 30.27 in 10.0 mi Calm Calm - N/A   Clear
11:56 AM 64.9 °F - 30.0 °F 27% 30.26 in 10.0 mi NNW 12.7 mph 18.4 mph N/A   Clear
12:04 PM - - - N/A% - - North - - N/A   Unknown
12:56 PM 66.9 °F - 32.0 °F 27% 30.25 in 10.0 mi NW 11.5 mph 20.7 mph N/A   Clear
1:56 PM 66.9 °F - 30.9 °F 26% 30.22 in 10.0 mi NNW 12.7 mph - N/A   Clear
2:56 PM 69.1 °F - 32.0 °F 25% 30.19 in 10.0 mi WSW 6.9 mph - N/A   Clear
3:56 PM 71.1 °F - 32.0 °F 24% 30.18 in 10.0 mi NW 6.9 mph 16.1 mph N/A   Clear
4:56 PM 71.1 °F - 33.1 °F 25% 30.17 in 10.0 mi WNW 8.1 mph - N/A   Clear
5:56 PM 66.9 °F - 42.1 °F 40% 30.18 in 10.0 mi South 10.4 mph - N/A   Clear
6:56 PM 64.0 °F - 44.1 °F 48% 30.17 in 10.0 mi SSW 9.2 mph - N/A   Clear
7:56 PM 61.0 °F - 45.0 °F 56% 30.17 in 10.0 mi South 8.1 mph - N/A   Clear
8:56 PM 59.0 °F - 45.0 °F 60% 30.17 in 10.0 mi South 6.9 mph - N/A   Clear
9:56 PM 57.9 °F - 45.0 °F 62% 30.19 in 10.0 mi South 5.8 mph - N/A   Clear
10:56 PM 59.0 °F - 44.1 °F 58% 30.18 in 10.0 mi SSW 6.9 mph - N/A   Clear
11:56 PM 59.0 °F - 45.0 °F 60% 30.16 in 10.0 mi SSW 8.1 mph - N/A   Clear